KD8AIF Weather Reports


time (UTC)temp
C
wind
direction
speed
KPH
gust
KPH
rain 1hr
cm
rain 24hr
cm
rain mn
cm
humidity
%
barometer
mb
20260505211004 12 326 4.8 14.5 0.00 0.00 0.00 40 985.1
20260505210003 12 275 4.8 19.3 0.00 0.00 0.00 39 985.1
20260505204003 12 255 4.8 19.3 0.00 0.00 0.00 38 984.9
20260505203004 12 253 4.8 14.5 0.00 0.00 0.00 37 985.1
20260505202004 12 264 4.8 14.5 0.00 0.00 0.00 37 984.7
20260505201003 12 228 6.4 20.9 0.00 0.00 0.00 38 985.0
20260505195003 12 272 3.2 16.1 0.00 0.00 0.00 39 984.9
20260505194004 12 258 4.8 12.9 0.00 0.00 0.00 38 985.0
20260505193004 12 287 4.8 16.1 0.00 0.00 0.00 38 984.5
20260505192004 12 251 8.0 19.3 0.00 0.00 0.00 37 984.5
20260505190004 12 263 6.4 19.3 0.00 0.00 0.00 38 984.1
20260505185003 12 239 4.8 16.1 0.00 0.00 0.00 37 984.5
20260505184003 12 291 4.8 14.5 0.00 0.00 0.00 36 984.3
20260505183004 12 264 4.8 16.1 0.00 0.00 0.00 37 984.4
20260505182004 12 259 4.8 11.3 0.00 0.00 0.00 36 984.2
20260505175004 12 231 8.0 16.1 0.00 0.00 0.00 32 983.8
20260505174004 13 278 3.2 14.5 0.00 0.00 0.00 33 983.0
20260505173004 13 302 4.8 14.5 0.00 0.00 0.00 33 983.2
20260505172004 12 318 4.8 14.5 0.00 0.00 0.00 34 982.9
20260505171003 12 302 6.4 14.5 0.00 0.00 0.00 32 983.0
20260505170004 12 304 6.4 16.1 0.00 0.00 0.00 33 982.7
20260505165004 12 340 8.0 14.5 0.00 0.00 0.00 32 982.9
20260505163004 12 275 9.7 22.5 0.00 0.00 0.00 32 982.9
20260505161004 12 274 3.2 12.9 0.00 0.00 0.00 33 983.9
20260505153003 11 250 4.8 12.9 0.00 0.00 0.00 36 982.9
20260505152003 11 292 1.6 14.5 0.00 0.00 0.00 39 982.6
20260505151004 11 322 4.8 14.5 0.00 0.00 0.00 39 983.9
20260505125004 9 331 4.8 12.9 0.00 0.00 0.00 69 983.2
20260505124004 9 299 4.8 11.3 0.00 0.00 0.00 69 982.9
20260505123004 9 247 4.8 12.9 0.00 0.00 0.00 69 982.9
20260505122004 10 285 1.6 9.7 0.00 0.00 0.00 68 982.1
20260505121004 10 320 3.2 12.9 0.00 0.00 0.00 68 982.1
20260505120005 10 273 3.2 12.9 0.00 0.00 0.00 68 981.5
20260505115004 10 328 3.2 9.7 0.00 0.00 0.00 69 981.9
20260505114004 10 304 1.6 9.7 0.00 0.00 0.00 69 982.1
20260505113004 10 329 1.6 9.7 0.00 0.00 0.00 69 981.6
20260505112005 9 353 1.6 11.3 0.00 0.00 0.00 70 981.5
20260505111003 9 352 3.2 8.0 0.00 0.00 0.00 70 981.5
20260505100004 10 297 1.6 9.7 0.00 0.00 0.00 62 980.9
20260505095004 11 245 4.8 11.3 0.00 0.00 0.00 61 980.4
20260505094003 11 2 1.6 14.5 0.00 0.00 0.00 59 979.8
20260505093004 11 263 3.2 12.9 0.00 0.00 0.00 57 979.7
20260505092004 11 309 3.2 9.7 0.00 0.00 0.00 55 979.7
20260505091004 11 80 1.6 4.8 0.00 0.00 0.00 56 979.5
20260505090004 11 5 0.0 4.8 0.00 0.00 0.00 55 979.3
20260505084004 12 219 3.2 8.0 0.00 0.00 0.00 54 979.0
20260505083004 12 216 1.6 8.0 0.00 0.00 0.00 56 978.7
20260505081004 12 354 1.6 4.8 0.00 0.00 0.00 62 978.4
20260505080004 12 212 1.6 4.8 0.00 0.00 0.00 64 978.4
20260505074004 12 350 1.6 8.0 0.00 0.00 0.00 65 978.5
20260505073004 12 184 3.2 4.8 0.00 0.00 0.00 67 978.4
20260505072004 12 272 0.0 9.7 0.00 0.00 0.00 69 977.9
20260505071004 12 215 1.6 9.7 0.00 0.00 0.00 71 977.9
20260505070004 12 208 1.6 8.0 0.00 0.00 0.00 73 977.9
20260505065004 12 23 1.6 4.8 0.00 0.00 0.00 74 978.1
20260505064004 12 340 1.6 4.8 0.00 0.00 0.00 76 978.4
20260505062004 13 181 1.6 4.8 0.00 0.00 0.00 77 978.1
20260505061004 13 184 3.2 8.0 0.00 0.00 0.00 76 977.4
20260505060004 13 103 1.6 4.8 0.00 0.00 0.00 76 977.5
20260505055004 13 336 1.6 8.0 0.00 0.00 0.00 76 977.5
20260505054004 14 256 1.6 8.0 0.00 0.00 0.00 75 977.6
20260505053004 14 315 1.6 8.0 0.00 0.00 0.00 75 977.4
20260505052004 15 248 3.2 8.0 0.00 0.00 0.00 74 977.3
20260505051004 15 233 1.6 8.0 0.00 0.00 0.00 74 977.1
20260505041005 17 214 8.0 19.3 0.00 0.00 0.00 68 976.4
20260505040005 17 258 3.2 14.5 0.00 0.00 0.00 67 976.4
20260505035004 17 249 6.4 14.5 0.00 0.00 0.00 67 976.2
20260505034004 17 258 3.2 11.3 0.00 0.00 0.00 68 976.2
20260505033004 17 217 4.8 12.9 0.00 0.00 0.00 67 976.1
20260505032004 17 225 3.2 8.0 0.00 0.00 0.00 68 976.0
20260505031004 17 206 3.2 9.7 0.00 0.00 0.00 68 976.0
20260505025004 18 262 3.2 12.9 0.00 0.00 0.00 64 975.9
20260505024004 18 186 3.2 14.5 0.00 0.00 0.00 64 975.2
20260505022004 18 175 6.4 19.3 0.00 0.00 0.00 62 975.2
20260505021004 20 182 8.0 20.9 0.00 0.00 0.00 59 975.3
20260505020004 20 217 6.4 29.0 0.00 0.00 0.00 58 974.8
20260505015004 21 223 8.0 24.1 0.00 0.00 0.00 55 974.4
20260505014003 21 194 8.0 19.3 0.00 0.00 0.00 53 974.0
20260505013003 21 193 8.0 16.1 0.00 0.00 0.00 52 973.8
20260505012003 21 195 4.8 12.9 0.00 0.00 0.00 52 973.8
20260505011004 21 220 8.0 16.1 0.00 0.00 0.00 51 973.7
20260505010004 22 220 9.7 20.9 0.00 0.00 0.00 49 973.8
20260505005004 22 214 8.0 19.3 0.00 0.00 0.00 47 973.9
20260505004004 22 207 6.4 19.3 0.00 0.00 0.00 42 973.8
20260505000003 23 200 4.8 14.5 0.00 0.00 0.00 35 973.4
20260504235004 23 211 4.8 16.1 0.00 0.00 0.00 35 973.6
20260504234004 23 211 4.8 14.5 0.00 0.00 0.00 34 973.7
20260504233003 24 214 4.8 19.3 0.00 0.00 0.00 34 973.8
20260504232004 24 208 3.2 11.3 0.00 0.00 0.00 33 973.7
20260504231004 23 222 6.4 19.3 0.00 0.00 0.00 33 973.8
20260504230004 23 244 4.8 14.5 0.00 0.00 0.00 34 974.1
20260504225004 23 211 6.4 14.5 0.00 0.00 0.00 33 974.3
20260504224004 23 222 4.8 16.1 0.00 0.00 0.00 33 974.6
20260504223004 23 236 8.0 19.3 0.00 0.00 0.00 32 974.6
20260504220004 23 202 8.0 20.9 0.00 0.00 0.00 32 974.7
20260504215004 23 230 6.4 20.9 0.00 0.00 0.00 32 975.2
20260504213004 24 195 11.3 20.9 0.00 0.00 0.00 31 974.9